Date String (YYYY-MM-DD hh:mm:ss) UTC,Instrument flags,absolute air pressure of the measurement (hPa),sample flow rate (lpm),inlet stack bypass flow (lpm),air temperature of the measurement (°C),ambient temperature measured by the external sensor (°C),aerosol sample conditioner tube jacket temperature (°C),OPC LED temperature (°C),internal box temperature (°C),relative humidity of the measurement (%),span deviation,mass concentration of particles derived from Lorenz-Mie calculation of OPC scattering (μg/m³),mass concentration of particles derived from Lorenz-Mie calculation of OPC scattering (μg/m³),mass concentration of particles derived from Lorenz-Mie calculation of OPC scattering (μg/m³)
DateTimeUTC,F1_M11,P_M11,Q1_M11,Q2_M11,T1_M11,T2_M11,T3_M11,T4_M11,T5_M11,U1_M11,ZSPAN_M11,X0_M11,X2_M11,X1_M11
2023-09-30 10:00:00,SystemResetWarning,0828.8,5.00,000.00,029.2,027.8,000.0,037.6,030.8,20.0,0000.0,0016.20,0006.34,0004.64
2023-09-30 10:01:00,SystemResetWarning,0828.8,5.01,000.00,029.2,027.8,000.0,037.6,030.8,20.1,0000.0,0016.48,0006.24,0004.61
2023-09-30 10:02:00,SystemResetWarning,0828.8,4.99,000.00,029.2,026.9,000.0,037.6,030.8,20.2,0000.0,0017.07,0006.13,0004.59
2023-09-30 10:03:00,SystemResetWarning,0828.8,5.00,000.00,029.1,024.8,000.0,037.5,030.6,20.2,0000.0,0017.38,0006.15,0004.59
2023-09-30 10:04:00,SystemResetWarning,0828.8,5.01,000.00,029.0,024.2,000.0,037.4,030.4,20.3,0000.0,0017.07,0006.14,0004.57
2023-09-30 10:05:00,SystemResetWarning,0828.8,5.01,000.00,028.8,024.4,000.0,037.4,030.1,20.5,0000.0,0016.92,0006.13,0004.55
2023-09-30 10:06:00,SystemResetWarning,0828.8,4.99,000.00,028.7,024.8,000.0,037.4,030.1,20.7,0000.0,0016.67,0006.13,0004.55
2023-09-30 10:07:00,SystemResetWarning,0828.8,5.00,000.00,028.6,025.2,000.0,037.4,030.1,21.0,0000.0,0016.50,0006.13,0004.56
2023-09-30 10:08:00,SystemResetWarning,0828.9,5.00,000.00,028.6,025.5,000.0,037.3,030.1,21.1,0000.0,0016.75,0006.15,0004.56
2023-09-30 10:09:00,SystemResetWarning,0829.0,5.00,000.00,028.6,025.8,000.0,037.3,030.1,21.1,0000.0,0017.81,0006.17,0004.55
2023-09-30 10:10:00,SystemResetWarning,0829.0,5.00,000.00,028.5,026.0,000.0,037.2,030.1,21.1,0000.0,0017.71,0006.17,0004.54
2023-09-30 10:11:00,SystemResetWarning,0828.9,5.00,000.00,028.5,026.2,000.0,037.2,030.1,21.1,0000.0,0017.52,0006.11,0004.54
2023-09-30 10:12:00,SystemResetWarning,0828.9,4.99,000.00,028.5,026.4,000.0,037.2,030.1,21.3,0000.0,0016.63,0006.12,0004.53
2023-09-30 10:13:00,SystemResetWarning,0828.9,5.00,000.00,028.5,026.5,000.0,037.2,030.1,21.4,0000.0,0016.48,0006.16,0004.52
2023-09-30 10:14:00,SystemResetWarning,0828.9,5.01,000.00,028.5,026.6,000.0,037.1,030.2,21.4,0000.0,0017.25,0006.15,0004.51
2023-09-30 10:15:00,SystemResetWarning,0828.9,5.01,000.00,028.5,026.7,000.0,037.1,030.2,21.4,0000.0,0017.22,0006.06,0004.49
2023-09-30 10:16:00,SystemResetWarning,0829.0,5.00,000.00,028.5,026.8,000.0,037.1,030.2,21.3,0000.0,0016.75,0005.96,0004.47
2023-09-30 10:17:00,SystemResetWarning,0828.9,5.00,000.00,028.5,026.8,000.0,037.1,030.2,21.3,0000.0,0016.52,0005.88,0004.45
2023-09-30 10:18:00,SystemResetWarning,0828.9,5.00,000.00,028.5,026.9,000.0,037.1,030.2,21.3,0000.0,0017.31,0005.84,0004.43
2023-09-30 10:19:00,SystemResetWarning,0828.9,5.00,000.00,028.5,027.0,000.0,037.0,030.2,21.5,0000.0,0017.83,0005.80,0004.43
2023-09-30 10:20:00,SystemResetWarning,0828.9,5.00,000.00,028.5,027.0,000.0,037.0,030.2,21.5,0000.0,0016.85,0005.79,0004.43
2023-09-30 10:21:00,SystemResetWarning,0828.9,5.00,000.00,028.6,027.0,000.0,037.1,030.2,21.6,0000.0,0016.47,0005.74,0004.42
2023-09-30 10:22:00,SystemResetWarning,0828.9,5.00,000.00,028.6,027.1,000.0,037.0,030.2,21.6,0000.0,0016.65,0005.85,0004.44
2023-09-30 10:23:00,SystemResetWarning,0828.9,5.00,000.00,028.6,027.1,000.0,037.0,030.2,21.4,0000.0,0017.13,0005.95,0004.45
2023-09-30 10:24:00,SystemResetWarning,0828.9,5.00,000.00,028.6,027.1,000.0,037.0,030.3,21.4,0000.0,0017.40,0006.05,0004.46
2023-09-30 10:25:00,SystemResetWarning,0828.9,5.00,000.00,028.6,027.2,000.0,037.1,030.3,21.3,0000.0,0017.81,0006.07,0004.46
2023-09-30 10:26:00,SystemResetWarning,0829.0,5.01,000.00,028.6,027.2,000.0,037.1,030.3,21.2,0000.0,0017.67,0006.11,0004.47
2023-09-30 10:27:00,SystemResetWarning,0828.9,5.00,000.00,028.6,027.2,000.0,037.1,030.3,21.3,0000.0,0018.21,0006.23,0004.50
2023-09-30 10:28:00,SystemResetWarning,0829.0,5.00,000.00,028.6,027.2,000.0,037.1,030.3,21.2,0000.0,0018.67,0006.35,0004.53
2023-09-30 10:29:00,SystemResetWarning,0829.0,5.00,000.00,028.7,027.3,000.0,037.1,030.4,21.2,0000.0,0018.20,0006.39,0004.56
2023-09-30 10:30:00,SystemResetWarning,0828.9,5.00,000.00,028.7,027.3,000.0,037.1,030.4,21.2,0000.0,0017.86,0006.45,0004.59
2023-09-30 10:31:00,SystemResetWarning,0829.0,5.00,000.00,028.7,027.3,000.0,037.1,030.4,20.9,0000.0,0018.40,0006.46,0004.61
2023-09-30 10:32:00,SystemResetWarning,0828.9,5.00,000.00,028.7,027.3,000.0,037.1,030.4,20.5,0000.0,0018.84,0006.58,0004.66
2023-09-30 10:33:00,SystemResetWarning,0828.9,5.00,000.00,028.7,027.3,000.0,037.1,030.4,20.2,0000.0,0018.62,0006.59,0004.66
2023-09-30 10:34:00,SystemResetWarning,0828.8,5.00,000.00,028.7,027.3,000.0,037.1,030.4,19.9,0000.0,0018.83,0006.58,0004.68
2023-09-30 10:35:00,SystemResetWarning,0828.8,5.00,000.00,028.7,027.4,000.0,037.1,030.4,20.0,0000.0,0018.78,0006.58,0004.71
2023-09-30 10:36:00,SystemResetWarning,0828.8,5.01,000.00,028.7,027.4,000.0,037.1,030.4,20.1,0000.0,0018.00,0006.61,0004.72
2023-09-30 10:37:00,SystemResetWarning,0828.7,5.01,000.00,028.7,027.4,000.0,037.1,030.4,20.1,0000.0,0019.60,0006.68,0004.75
2023-09-30 10:38:00,SystemResetWarning,0828.8,4.98,000.00,028.7,027.4,000.0,037.2,030.4,20.2,0000.0,0021.05,0006.71,0004.76
2023-09-30 10:39:00,SystemResetWarning,0828.8,4.99,000.00,028.8,027.4,000.0,037.2,030.4,20.0,0000.0,0021.44,0006.76,0004.76
2023-09-30 10:40:00,SystemResetWarning,0828.8,5.00,000.00,028.8,027.4,000.0,037.2,030.5,20.1,0000.0,0022.29,0006.80,0004.76
2023-09-30 10:41:00,SystemResetWarning,0828.8,5.01,000.00,028.8,027.4,000.0,037.2,030.5,20.1,0000.0,0022.72,0006.78,0004.77
2023-09-30 10:42:00,SystemResetWarning,0828.8,5.01,000.00,028.8,027.4,000.0,037.2,030.4,19.9,0000.0,0024.90,0006.81,0004.78
2023-09-30 10:43:00,SystemResetWarning,0828.8,5.00,000.00,028.8,027.4,000.0,037.2,030.4,19.8,0000.0,0024.74,0006.87,0004.79
2023-09-30 10:44:00,SystemResetWarning,0828.8,5.01,000.00,028.8,027.4,000.0,037.2,030.5,19.8,0000.0,0025.30,0006.82,0004.81
2023-09-30 10:45:00,SystemResetWarning,0828.9,5.01,000.00,028.8,027.4,000.0,037.2,030.5,19.6,0000.0,0025.90,0006.91,0004.83
2023-09-30 10:46:00,SystemResetWarning,0829.0,5.00,000.00,028.8,027.4,000.0,037.2,030.5,19.6,0001.7,0025.43,0006.88,0004.83
2023-09-30 10:47:00,SystemResetWarning,0828.9,4.99,000.00,028.8,027.4,000.0,037.2,030.5,19.6,0000.4,0025.00,0006.85,0004.84
2023-09-30 10:48:00,SystemResetWarning,0828.9,4.99,000.00,028.8,027.4,000.0,037.2,030.5,19.5,0000.0,0023.99,0006.85,0004.85
2023-09-30 10:49:00,SystemResetWarning,0829.0,4.99,000.00,028.8,027.4,000.0,037.2,030.5,19.4,0000.0,0021.80,0006.87,0004.87
2023-09-30 10:50:00,SystemResetWarning,0829.0,5.00,000.00,028.8,027.4,000.0,037.2,030.5,19.5,0000.0,0021.43,0006.87,0004.88
2023-09-30 10:51:00,SystemResetWarning,0828.9,5.00,000.00,028.8,027.4,000.0,037.2,030.5,19.2,0000.0,0020.95,0006.86,0004.90
2023-09-30 10:52:00,SystemResetWarning,0828.9,5.01,000.00,028.8,027.4,000.0,037.3,030.5,19.0,0000.0,0020.34,0006.92,0004.92
2023-09-30 10:53:00,SystemResetWarning,0829.0,5.01,000.00,028.8,027.4,000.0,037.2,030.5,18.9,0000.0,0018.20,0006.96,0004.92
2023-09-30 10:54:00,SystemResetWarning,0829.0,4.99,000.00,028.8,027.4,000.0,037.3,030.5,18.8,0000.0,0017.30,0006.93,0004.92
2023-09-30 10:55:00,SystemResetWarning,0828.9,4.99,000.00,028.8,027.4,000.0,037.3,030.5,19.0,0000.0,0018.40,0006.95,0004.93
2023-09-30 10:56:00,SystemResetWarning,0829.0,5.00,000.00,028.8,027.4,000.0,037.3,030.5,18.7,0000.0,0018.89,0006.95,0004.93
2023-09-30 10:57:00,SystemResetWarning,0828.9,5.01,000.00,028.8,027.4,000.0,037.3,030.5,18.7,0000.0,0020.66,0006.96,0004.94
2023-09-30 10:58:00,SystemResetWarning,0829.0,5.01,000.00,028.8,027.4,000.0,037.3,030.5,18.5,0000.0,0022.06,0007.01,0004.95
2023-09-30 10:59:00,SystemResetWarning,0829.0,5.00,000.00,028.9,027.4,000.0,037.3,030.5,18.2,0000.0,0022.43,0007.00,0004.97
